Home   Weather   Viersen   Past weeks

Flag for Germany Past Weather in Viersen, North Rhine-Westphalia, Germany — Yesterday and Last 2 Weeks

Now
61 °F

Light rain. Passing clouds.


Feels Like: 61 °F
Forecast: 56 / 62 °F
Wind: 8 mph from South

Location: Duesseldorf

Current Time: Jul 24, 2017 at 5:01:02 am

Latest Report: Jul 24, 2017 at 4:20 am


Visibility: N/A

Pressure: 29.83 "Hg

Humidity: 77%

Dew Point: 54 °F

Location of ViersenLocation

Past Weather in Viersen — Graph

°F

Viersen Temperature Yesterday

Maximum temperature yesterday: 68 °F (at 10:50 am)
Minimum temperature yesterday: 59 °F (at 6:20 am)
Average temperature yesterday: 64 °F

High & Low Weather Summary for the Past Weeks

 TemperatureHumidityPressure
High90 °F (Jul 19, 1:50 pm)100% (Jul 12, 10:31 am)30.24 "Hg (Jul 12, 10:31 am)
Low46 °F (Jul 13, 4:20 am)34% (Jul 10, 2:50 pm)29.68 "Hg (Jul 12, 12:58 pm)
Average67 °F68%29.97 "Hg
* Reported Jul 9 4:20 am — Jul 24 4:20 am, Viersen. Weather by CustomWeather, © 2017

Note: Actual official high and low records may vary slightly from our data, if they occured in-between our weather recording intervals... More about our weather records

Advertising

Viersen Weather History for the Previous 24 Hours

Scroll right to see more
 ConditionsComfort  
Time TempWeatherWind HumidityBarometerVisibility
4:20 am
Mon, Jul 24
61 °FLight rain. Passing clouds.8 mph77%29.83 "HgN/A
3:50 am61 °FLight rain. Passing clouds.8 mph77%29.83 "HgN/A
3:20 am61 °FPassing clouds.7 mph77%29.83 "HgN/A
2:50 am61 °FPassing clouds.7 mph77%29.86 "HgN/A
2:20 am61 °FLight rain. Passing clouds.6 mph83%29.86 "HgN/A
1:50 am61 °FLight rain. Passing clouds.8 mph83%29.86 "HgN/A
1:20 am63 °FPassing clouds.8 mph73%29.89 "HgN/A
12:50 am63 °FPassing clouds.7 mph73%29.89 "HgN/A
12:20 am63 °FClear.9 mph73%29.89 "Hg10 mi
11:50 pm
Sun, Jul 23
63 °FClear.10 mph73%29.89 "Hg10 mi
11:20 pm63 °FClear.10 mph73%29.92 "Hg10 mi
10:50 pm63 °FClear.12 mph68%29.92 "Hg10 mi
10:20 pm63 °FPartly cloudy.10 mph68%29.92 "HgN/A
9:50 pm63 °FPartly cloudy.14 mph68%29.92 "HgN/A
9:20 pm64 °FBroken clouds.16 mph64%29.92 "HgN/A
8:50 pm64 °FBroken clouds.17 mph64%29.92 "HgN/A
8:20 pm66 °FPartly sunny.14 mph64%29.92 "HgN/A
7:50 pm66 °FScattered showers. Partly sunny.15 mph60%29.92 "HgN/A
7:20 pm66 °FSprinkles. Partly sunny.17 mph64%29.92 "HgN/A
6:50 pm66 °FBroken clouds.17 mph60%29.92 "HgN/A
6:20 pm68 °FScattered clouds.18 mph56%29.92 "HgN/A
5:20 pm68 °FScattered showers. Scattered clouds.18 mph60%29.92 "HgN/A
4:50 pm68 °FScattered showers. Scattered clouds.21 mph60%29.92 "HgN/A
3:54 pm66 °FSprinkles. Broken clouds.21 mph60%29.95 "HgN/A
3:50 pm68 °FSprinkles. Broken clouds.22 mph56%29.92 "HgN/A
2:50 pm68 °FBroken clouds.21 mph56%29.95 "HgN/A
2:20 pm66 °FScattered showers. Broken clouds.18 mph60%29.95 "HgN/A
1:50 pm66 °FScattered showers. Broken clouds.20 mph56%29.95 "HgN/A
1:24 pm66 °FScattered showers. Broken clouds.20 mph56%29.92 "HgN/A
1:20 pm66 °FScattered showers. Broken clouds.18 mph60%29.92 "HgN/A
12:50 pm68 °FScattered showers. Broken clouds.20 mph56%29.92 "HgN/A
12:20 pm66 °FScattered showers. Broken clouds.20 mph64%29.92 "HgN/A
11:50 am64 °FBroken clouds.21 mph64%29.92 "HgN/A
11:20 am66 °FScattered clouds.18 mph64%29.92 "HgN/A
10:50 am68 °FPassing clouds.21 mph60%29.92 "HgN/A
10:20 am64 °FPassing clouds.17 mph68%29.92 "HgN/A
9:50 am63 °FPassing clouds.17 mph73%29.92 "HgN/A
9:20 am61 °FPassing clouds.15 mph77%29.92 "HgN/A
8:50 am61 °FScattered clouds.16 mph77%29.92 "HgN/A
7:50 am61 °FPartly sunny.12 mph83%29.92 "HgN/A
7:20 am61 °FScattered clouds.9 mph83%29.92 "HgN/A
6:50 am59 °FScattered clouds.9 mph88%29.92 "HgN/A
6:20 am59 °FPartly sunny.9 mph94%29.92 "HgN/A
5:50 am61 °FBroken clouds.9 mph88%29.89 "HgN/A
5:20 am61 °FSprinkles. Passing clouds.12 mph94%29.89 "HgN/A
Weather by CustomWeather, © 2017

See weather overviewHow to use our weather pages